Weather Roundup
Issued by NWS

Home | Current Version | Previous Version | Graphics & Text | Print | Product List | Glossary Off
Versions: 1 2 3 4 5 6 7 8 9 10 11 12 13 14 15 16 17 18 19 20 21 22 23 24 25 26 27 28 29 30 31 32 33 34 35 36 37 38 39 40 41 42 43 44 45 46 47 48 49 50

000
NZUS93 KARX 211110
HRRWXR

CURRENT HOURLY OBSERVATIONS ACROSS
MUCH OF THE UPPER MISSISSIPPI VALLEY
NATIONAL WEATHER SERVICE LA CROSSE WI
600 AM CDT TUE APR 21 2015


...SOUTHEAST MINNESOTA...


CITY           SKY/WX    TMP DP  RH WIND       PRES   REMARKS
ROCHESTER      CLOUDY    35  29  78 W23G31    29.54S WCI  23
ROCHESTER/MAYO CLOUDY    36  29  78 W23G35    29.52F WCI  24
WINONA         CLOUDY    37  28  70 NW14G20   29.53R WCI  29
AUSTIN         CLOUDY    36  27  69 W21G33    29.58S WCI  24
ALBERT LEA     CLOUDY    36  28  75 W14G24    29.60S WCI  27
DODGE CENTER   CLOUDY    36  30  80 W16       29.54S WCI  26
PRESTON        CLOUDY    34  28  79 W18G30    29.55S WCI  23
OWATONNA       CLOUDY    36  27  69 W23G32    29.57S WCI  24
FARIBAULT      CLOUDY    36  28  75 W18G26    29.56S WCI  25
$$

...ELSEWHERE IN MINNESOTA...


CITY           SKY/WX    TMP DP  RH WIND       PRES   REMARKS
MINNEAPOLIS    CLOUDY    35  24  64 NW25G35   29.54R WCI  23
INTNL FALLS    LGT SNOW  28  23  81 N17       29.41R WCI  16
DULUTH         LGT SNOW  31  26  82 W14G22    29.35S WCI  21
RED WING       CLOUDY    37  25  60 NW18G24   29.51S WCI  27
REDWOOD FALLS  CLOUDY    35  27  72 W21G28    29.63S WCI  24
MANKATO        CLOUDY    36  25  64 NW14G21   29.60S WCI  27
WORTHINGTON    CLEAR     30  21  69 W15       29.68S WCI  19
FAIRMONT       PTCLDY    34  25  69 W15       29.64F WCI  24
$$

...SOUTHWEST WISCONSIN...


CITY           SKY/WX    TMP DP  RH WIND       PRES   REMARKS
LA CROSSE      CLOUDY    39  27  62 W14G28    29.52S WCI  31
PRAIRIE DU CHI CLOUDY    40  26  58 W21G30    29.58S WCI  30
BOSCOBEL       CLOUDY    41  25  53 W13G28    29.56R
LONE ROCK      CLOUDY    39  29  67 W10       29.53S WCI  32
PLATTEVILLE    CLOUDY    39  30  70 W28G38    29.57R WCI  27
FORT MC COY    CLOUDY    36  29  76 W12G18    29.50S WCI  28
CAMP DOUGLAS   LGT RAIN  34  34 100 SW17G24   29.48R WCI  23
VIROQUA        CLOUDY    33  32  94 W9        29.51S WCI  26
WIS DELLS      CLOUDY    34  30  86 W13       29.49S WCI  25
$$

...ELSEWHERE IN WISCONSIN...


CITY           SKY/WX    TMP DP  RH WIND       PRES   REMARKS
MILWAUKEE      MOCLDY    39  29  67 W14G22    29.51S WCI  31
MADISON        CLOUDY    39  28  64 W10G21    29.51S WCI  32
GREEN BAY      CLOUDY    38  31  76 W14G22    29.41S WCI  30
EAU CLAIRE     CLOUDY    34  27  75 W17G24    29.47S WCI  23
BLACK RVR FLS  CLOUDY    35  32  89 W8        29.49R WCI  28
MEDFORD        LGT SNOW  31  30  95 W10       29.39R WCI  22
WAUSAU         CLOUDY    33  29  85 W17       29.38S WCI  22
WIS RAPIDS     FLURRIES  34  29  82 W10       29.46R WCI  26
MARSHFIELD     LGT SNOW  33  30  88 W15       29.42S FOG     WCI  23
RICE LAKE      LGT SNOW  32  29  88 W14G21    29.46S WCI  22
$$

...NORTHEAST IOWA...


CITY           SKY/WX    TMP DP  RH WIND       PRES   REMARKS
DECORAH        CLOUDY    37  28  70 W9G20     29.56S WCI  31
MASON CITY     PTCLDY    35  27  72 W18       29.65S WCI  24
CHARLES CITY   PTCLDY    36  30  80 W18G24    29.63R WCI  25
OELWEIN        PTCLDY    36  28  75 W17G23    29.63S WCI  25
$$

...ELSEWHERE IN IOWA...


CITY           SKY/WX    TMP DP  RH WIND       PRES   REMARKS
DES MOINES     CLEAR     36  22  56 CALM      29.75F
IOWA CITY      CLEAR     38  29  70 W14       29.70F WCI  30
FORT DODGE     CLEAR     34  25  69 W6        29.71F WCI  29
$$

...NORTHERN ILLINOIS...


CITY           SKY/WX    TMP DP  RH WIND       PRES   REMARKS
CHICAGO-OHARE  PTCLDY    39  29  67 W21G28    29.59R WCI  29
CHICAGO-MIDWAY PTCLDY    42  30  62 W16G26    29.62R
MOLINE         CLEAR     40  29  64 W15       29.68S WCI  32
ROCKFORD       MOCLDY    40  29  64 W14       29.61S WCI  32
PEORIA         CLEAR     39  28  64 W8        29.72S WCI  33
$$

NOTE: "FAIR" INDICATES FEW OR NO CLOUDS BELOW 12,000 FEET WITH NO
SIGNIFICANT WEATHER AND/OR OBSTRUCTIONS TO VISIBILITY. WIND
SPEEDS ARE IN MILES-PER-HOUR.



USA.gov is the U.S. government's official web portal to all federal, state and local government web resources and services.